Simultaneous Nadir Overpasses (SNOs) Predictions

Prediction of SNOs between METOP-B and NOAA-19 Satellite Orbit:

Table of predicted SNOs for the next 14.0 days since TLE Epoch: 6/10/2015
Index Date (METOP-B) Time (METOP-B) Lat,Lon (METOP-B) SZA (METOP-B ) Date (NOAA-19) Time (NOAA-19) Lat,Lon (NOAA-19) SZA (NOAA-19 ) Distance(km) Time Diff (sec)
1 06/11/2015 15:43:27 75.52, -56.77 52.35 06/11/2015 15:42:22 75.54, -60.33 52.42 98.86 65
2 06/11/2015 16:34:20 -74.96, 108.92 128.20 06/11/2015 16:33:05 -74.97, 108.72 128.19 5.89 75
3 06/11/2015 17:25:01 74.92, -83.86 51.76 06/11/2015 17:24:11 74.90, -83.87 51.74 2.66 50
4 06/11/2015 18:15:43 -74.90, 83.39 128.27 06/11/2015 18:15:06 -74.89, 83.43 128.27 1.51 37
5 06/11/2015 19:06:24 74.86,-109.38 51.70 06/11/2015 19:06:13 74.87,-109.29 51.71 3.07 11
6 06/11/2015 19:57:05 -74.88, 58.00 128.29 06/11/2015 19:57:08 -74.86, 58.01 128.31 2.22 3
7 06/11/2015 20:47:46 74.84,-134.78 51.67 06/11/2015 20:48:15 74.84,-134.71 51.67 1.95 29
8 06/11/2015 21:38:27 -74.86, 32.61 128.31 06/11/2015 21:39:10 -74.83, 32.59 128.35 3.51 43
9 06/11/2015 22:29:08 74.82,-160.17 51.65 06/11/2015 22:30:17 74.81,-160.13 51.63 1.71 69
10 06/11/2015 23:19:56 -74.50, 6.30 128.66 06/11/2015 23:21:06 -74.51, 7.98 128.68 49.82 70
11 06/22/2015 04:16:48 -75.23, -65.95 128.27 06/22/2015 04:15:37 -75.24, -67.57 128.23 45.89 71
12 06/22/2015 05:07:34 74.95, 100.56 51.45 06/22/2015 05:06:38 74.95, 100.55 51.46 0.72 56
13 06/22/2015 05:58:16 -74.93, -92.17 128.57 06/22/2015 05:57:33 -74.94, -92.14 128.56 1.30 43
14 06/22/2015 06:48:56 74.93, 75.16 51.43 06/22/2015 06:48:40 74.92, 75.12 51.43 1.21 16
15 06/22/2015 07:39:38 -74.91,-117.56 128.59 06/22/2015 07:39:35 -74.91,-117.56 128.59 0.11 3
16 06/22/2015 08:30:18 74.91, 49.77 51.42 06/22/2015 08:30:42 74.89, 49.70 51.40 2.48 24
17 06/22/2015 09:21:00 -74.89,-142.96 128.61 06/22/2015 09:21:37 -74.88,-142.99 128.62 1.48 37
18 06/22/2015 10:11:41 74.84, 24.24 51.35 06/22/2015 10:12:44 74.86, 24.28 51.37 2.95 63
19 06/22/2015 11:02:24 -74.77,-168.62 128.72 06/22/2015 11:03:38 -74.80,-168.27 128.70 10.55 74
